TAM3898 SBMQ-SBBE

Flight info

Callsign TAM3898
Flight time 0h 37m
Altitude 23000
Route TILTO UZ7 VUSNA
Aircraft A321/M-SDE3FGHIRWY/LB1

Departure

Time 2026-04-29 19:10
Airport Macapá - Alberto Alcolumbre International Airport (SBMQ)

Arrival

Time 2026-04-29 19:47
Airport Val de Cans/Júlio Cezar Ribeiro International Airport (SBBE)
Time Latitude Longitude Altitude Speed Heading
2026-04-29 18:51 0.05065 -51.06770 61 ft 0 kts 34°
2026-04-29 19:04 0.05066 -51.06769 64 ft 1 kts 34°
2026-04-29 19:04 0.05071 -51.06766 57 ft 2 kts 31°
2026-04-29 19:04 0.05087 -51.06764 59 ft 3 kts 357°
2026-04-29 19:05 0.05099 -51.06778 62 ft 3 kts 285°
2026-04-29 19:05 0.05097 -51.06802 64 ft 4 kts 263°
2026-04-29 19:05 0.05108 -51.06834 60 ft 6 kts 304°
2026-04-29 19:05 0.05136 -51.06874 63 ft 7 kts 270°
2026-04-29 19:06 0.05117 -51.06928 61 ft 10 kts 238°
2026-04-29 19:06 0.05075 -51.06992 61 ft 12 kts 237°
2026-04-29 19:06 0.05101 -51.07129 65 ft 11 kts 279°
2026-04-29 19:07 0.05072 -51.07201 63 ft 12 kts 238°
2026-04-29 19:07 0.05040 -51.07251 67 ft 13 kts 238°
2026-04-29 19:07 0.04971 -51.07358 63 ft 14 kts 237°
2026-04-29 19:07 0.04913 -51.07446 63 ft 16 kts 237°
2026-04-29 19:08 0.04847 -51.07546 61 ft 18 kts 237°
2026-04-29 19:08 0.04778 -51.07652 56 ft 18 kts 238°
2026-04-29 19:08 0.04708 -51.07763 55 ft 19 kts 237°
2026-04-29 19:08 0.04634 -51.07875 56 ft 20 kts 238°
2026-04-29 19:09 0.04558 -51.07954 66 ft 12 kts 199°
2026-04-29 19:09 0.04550 -51.07991 67 ft 4 kts 341°
2026-04-29 19:09 0.04568 -51.07974 58 ft 4 kts 51°
2026-04-29 19:09 0.04592 -51.07940 60 ft 12 kts 55°
2026-04-29 19:10 0.04752 -51.07693 63 ft 79 kts 57°
2026-04-29 19:10 0.05175 -51.07045 63 ft 140 kts 56°
2026-04-29 19:10 0.05729 -51.06207 606 ft 145 kts 55°
2026-04-29 19:10 0.06286 -51.05353 1206 ft 147 kts 59°
2026-04-29 19:11 0.06851 -51.04470 1639 ft 158 kts 59°
2026-04-29 19:11 0.07477 -51.03495 1861 ft 179 kts 58°
2026-04-29 19:11 0.08189 -51.02384 2056 ft 201 kts 58°
2026-04-29 19:11 0.08604 -51.00998 2193 ft 224 kts 93°
2026-04-29 19:12 0.07939 -50.99513 2416 ft 253 kts 133°
2026-04-29 19:12 0.06426 -50.98529 2995 ft 265 kts 149°
2026-04-29 19:12 0.04933 -50.97463 3682 ft 264 kts 129°
2026-04-29 19:12 0.04258 -50.96453 4151 ft 264 kts 117°
2026-04-29 19:13 0.02945 -50.94358 5118 ft 267 kts 124°
2026-04-29 19:13 0.01858 -50.92870 5828 ft 269 kts 126°
2026-04-29 19:13 0.00727 -50.91365 6516 ft 272 kts 126°
2026-04-29 19:13 -0.00411 -50.89837 7232 ft 275 kts 126°
2026-04-29 19:14 -0.01545 -50.88289 7907 ft 277 kts 125°
2026-04-29 19:14 -0.02684 -50.86715 8553 ft 280 kts 125°
2026-04-29 19:14 -0.03824 -50.85123 9197 ft 283 kts 124°
2026-04-29 19:14 -0.04972 -50.83510 9822 ft 286 kts 124°
2026-04-29 19:15 -0.06136 -50.81871 10107 ft 302 kts 124°
2026-04-29 19:15 -0.07389 -50.80103 10228 ft 321 kts 124°
2026-04-29 19:15 -0.08709 -50.78235 10491 ft 334 kts 124°
2026-04-29 19:15 -0.10059 -50.76326 10964 ft 338 kts 124°
2026-04-29 19:16 -0.11431 -50.74390 11482 ft 341 kts 124°
2026-04-29 19:16 -0.12808 -50.72445 12009 ft 344 kts 124°
2026-04-29 19:16 -0.14183 -50.70503 12533 ft 347 kts 124°
2026-04-29 19:16 -0.15587 -50.68523 13059 ft 349 kts 124°
2026-04-29 19:17 -0.16999 -50.66534 13568 ft 352 kts 124°
2026-04-29 19:17 -0.18423 -50.64526 14025 ft 355 kts 124°
2026-04-29 19:17 -0.19856 -50.62505 14480 ft 357 kts 124°
2026-04-29 19:17 -0.21295 -50.60471 14926 ft 359 kts 124°
2026-04-29 19:18 -0.22725 -50.58451 15382 ft 361 kts 124°
2026-04-29 19:18 -0.23708 -50.57063 15674 ft 363 kts 124°
2026-04-29 19:18 -0.25648 -50.54322 16241 ft 366 kts 124°
2026-04-29 19:18 -0.27125 -50.52237 16684 ft 368 kts 124°
2026-04-29 19:19 -0.28612 -50.50138 17107 ft 370 kts 124°
2026-04-29 19:19 -0.30108 -50.48023 17520 ft 373 kts 124°
2026-04-29 19:19 -0.31590 -50.45925 17931 ft 375 kts 124°
2026-04-29 19:19 -0.33102 -50.43786 18311 ft 377 kts 124°
2026-04-29 19:20 -0.34627 -50.41631 18662 ft 380 kts 124°
2026-04-29 19:20 -0.36161 -50.39467 19020 ft 382 kts 124°
2026-04-29 19:20 -0.37686 -50.37320 19383 ft 384 kts 124°
2026-04-29 19:20 -0.39236 -50.35137 19730 ft 386 kts 124°
2026-04-29 19:21 -0.40791 -50.32942 20076 ft 388 kts 124°
2026-04-29 19:21 -0.42349 -50.30738 20414 ft 389 kts 124°
2026-04-29 19:21 -0.43919 -50.28523 20743 ft 391 kts 124°
2026-04-29 19:21 -0.45502 -50.26295 21057 ft 393 kts 124°
2026-04-29 19:22 -0.47086 -50.24056 21376 ft 395 kts 124°
2026-04-29 19:22 -0.48625 -50.21773 21695 ft 397 kts 122°
2026-04-29 19:22 -0.50109 -50.19442 22020 ft 399 kts 121°
2026-04-29 19:22 -0.51566 -50.17076 22311 ft 400 kts 121°
2026-04-29 19:23 -0.53018 -50.14692 22611 ft 402 kts 120°
2026-04-29 19:23 -0.54479 -50.12297 22820 ft 404 kts 121°
2026-04-29 19:23 -0.55932 -50.09935 22862 ft 394 kts 121°
2026-04-29 19:23 -0.57376 -50.07617 22862 ft 391 kts 121°
2026-04-29 19:24 -0.58818 -50.05321 22861 ft 390 kts 121°
2026-04-29 19:24 -0.60241 -50.03061 22860 ft 389 kts 121°
2026-04-29 19:24 -0.61681 -50.00772 22860 ft 388 kts 121°
2026-04-29 19:24 -0.63124 -49.98481 22860 ft 388 kts 121°
2026-04-29 19:25 -0.64563 -49.96193 22857 ft 388 kts 121°
2026-04-29 19:25 -0.66003 -49.93898 22863 ft 389 kts 121°
2026-04-29 19:25 -0.67437 -49.91609 22863 ft 389 kts 121°
2026-04-29 19:25 -0.68852 -49.89349 22864 ft 389 kts 121°
2026-04-29 19:26 -0.70288 -49.87055 22862 ft 389 kts 121°
2026-04-29 19:26 -0.71731 -49.84752 22863 ft 389 kts 121°
2026-04-29 19:26 -0.73153 -49.82486 22864 ft 389 kts 121°
2026-04-29 19:26 -0.74592 -49.80192 22865 ft 389 kts 121°
2026-04-29 19:27 -0.76028 -49.77902 22868 ft 389 kts 121°
2026-04-29 19:27 -0.77465 -49.75607 22869 ft 389 kts 121°
2026-04-29 19:27 -0.78906 -49.73303 22868 ft 389 kts 121°
2026-04-29 19:27 -0.80338 -49.71014 22866 ft 389 kts 121°
2026-04-29 19:28 -0.81773 -49.68724 22860 ft 389 kts 121°
2026-04-29 19:28 -0.83202 -49.66466 22860 ft 389 kts 122°
2026-04-29 19:28 -0.84669 -49.64197 22860 ft 389 kts 122°
2026-04-29 19:28 -0.86148 -49.61934 22859 ft 389 kts 122°
2026-04-29 19:29 -0.87624 -49.59683 22558 ft 384 kts 122°
2026-04-29 19:29 -0.89086 -49.57454 22038 ft 381 kts 122°
2026-04-29 19:29 -0.90528 -49.55251 21597 ft 375 kts 122°
2026-04-29 19:29 -0.91945 -49.53075 21158 ft 370 kts 122°
2026-04-29 19:30 -0.93325 -49.50950 20734 ft 365 kts 121°
2026-04-29 19:30 -0.94700 -49.48831 20301 ft 360 kts 121°
2026-04-29 19:30 -0.96054 -49.46742 19873 ft 356 kts 121°
2026-04-29 19:30 -0.97392 -49.44674 19459 ft 352 kts 121°
2026-04-29 19:31 -0.98717 -49.42627 19050 ft 348 kts 121°
2026-04-29 19:31 -1.00027 -49.40603 18630 ft 344 kts 121°
2026-04-29 19:31 -1.01323 -49.38605 18224 ft 341 kts 121°
2026-04-29 19:31 -1.02592 -49.36648 17787 ft 337 kts 121°
2026-04-29 19:32 -1.03862 -49.34695 17373 ft 333 kts 122°
2026-04-29 19:32 -1.05116 -49.32768 16976 ft 328 kts 122°
2026-04-29 19:32 -1.06350 -49.30873 16587 ft 323 kts 122°
2026-04-29 19:32 -1.07566 -49.29003 16200 ft 318 kts 122°
2026-04-29 19:33 -1.08764 -49.27154 15822 ft 314 kts 122°
2026-04-29 19:33 -1.09949 -49.25325 15446 ft 311 kts 122°
2026-04-29 19:33 -1.11115 -49.23525 15078 ft 307 kts 122°
2026-04-29 19:33 -1.12257 -49.21764 14720 ft 304 kts 122°
2026-04-29 19:34 -1.13407 -49.19991 14351 ft 301 kts 122°
2026-04-29 19:34 -1.14542 -49.18241 13991 ft 298 kts 122°
2026-04-29 19:34 -1.15669 -49.16505 13622 ft 296 kts 122°
2026-04-29 19:34 -1.16773 -49.14806 13247 ft 293 kts 122°
2026-04-29 19:35 -1.17875 -49.13107 12894 ft 290 kts 122°
2026-04-29 19:35 -1.18966 -49.11426 12547 ft 286 kts 122°
2026-04-29 19:35 -1.20047 -49.09760 12196 ft 283 kts 122°
2026-04-29 19:35 -1.21116 -49.08113 11860 ft 281 kts 122°
2026-04-29 19:36 -1.22173 -49.06482 11501 ft 279 kts 122°
2026-04-29 19:36 -1.23224 -49.04859 11174 ft 277 kts 122°
2026-04-29 19:36 -1.24267 -49.03247 10836 ft 275 kts 122°
2026-04-29 19:36 -1.25288 -49.01670 10497 ft 273 kts 122°
2026-04-29 19:37 -1.26316 -49.00078 10172 ft 271 kts 121°
2026-04-29 19:37 -1.26995 -48.99025 9954 ft 270 kts 121°
2026-04-29 19:37 -1.28359 -48.96918 9487 ft 269 kts 122°
2026-04-29 19:37 -1.29370 -48.95358 9150 ft 266 kts 122°
2026-04-29 19:38 -1.30373 -48.93811 8824 ft 263 kts 122°
2026-04-29 19:38 -1.31365 -48.92281 8503 ft 261 kts 122°
2026-04-29 19:38 -1.32340 -48.90780 8185 ft 259 kts 122°
2026-04-29 19:38 -1.33316 -48.89276 7867 ft 256 kts 122°
2026-04-29 19:39 -1.34287 -48.87780 7559 ft 254 kts 122°
2026-04-29 19:39 -1.35245 -48.86302 7247 ft 252 kts 122°
2026-04-29 19:39 -1.36197 -48.84835 6939 ft 250 kts 122°
2026-04-29 19:39 -1.37141 -48.83381 6633 ft 249 kts 122°
2026-04-29 19:40 -1.38083 -48.81924 6327 ft 249 kts 122°
2026-04-29 19:40 -1.38998 -48.80505 6142 ft 242 kts 122°
2026-04-29 19:40 -1.39901 -48.79104 5892 ft 237 kts 122°
2026-04-29 19:40 -1.40786 -48.77733 5618 ft 233 kts 122°
2026-04-29 19:41 -1.41662 -48.76381 5334 ft 230 kts 122°
2026-04-29 19:41 -1.42526 -48.75047 5055 ft 227 kts 122°
2026-04-29 19:41 -1.43389 -48.73718 4708 ft 228 kts 122°
2026-04-29 19:41 -1.44245 -48.72407 4349 ft 228 kts 122°
2026-04-29 19:42 -1.45116 -48.71073 3983 ft 229 kts 122°
2026-04-29 19:42 -1.45411 -48.70621 3854 ft 229 kts 122°
2026-04-29 19:42 -1.46655 -48.68299 3279 ft 227 kts 111°
2026-04-29 19:42 -1.47224 -48.66870 3209 ft 224 kts 111°
2026-04-29 19:43 -1.47802 -48.65430 3124 ft 224 kts 111°
2026-04-29 19:43 -1.48383 -48.63985 3027 ft 224 kts 111°
2026-04-29 19:43 -1.48965 -48.62543 2925 ft 223 kts 110°
2026-04-29 19:43 -1.49320 -48.61045 2823 ft 222 kts 92°
2026-04-29 19:44 -1.49117 -48.59522 2746 ft 224 kts 71°
2026-04-29 19:44 -1.48362 -48.58163 2563 ft 225 kts 49°
2026-04-29 19:44 -1.47272 -48.57047 2323 ft 220 kts 46°
2026-04-29 19:44 -1.46234 -48.56005 2048 ft 203 kts 46°
2026-04-29 19:45 -1.45280 -48.55043 1791 ft 187 kts 45°
2026-04-29 19:45 -1.44403 -48.54157 1563 ft 172 kts 46°
2026-04-29 19:45 -1.43613 -48.53360 1355 ft 158 kts 45°
2026-04-29 19:45 -1.42868 -48.52607 1151 ft 145 kts 43°
2026-04-29 19:46 -1.42158 -48.51890 964 ft 144 kts 43°
2026-04-29 19:46 -1.41451 -48.51176 796 ft 145 kts 43°
2026-04-29 19:46 -1.40751 -48.50470 617 ft 144 kts 43°
2026-04-29 19:46 -1.40045 -48.49756 416 ft 143 kts 43°
2026-04-29 19:47 -1.39347 -48.49041 232 ft 145 kts 42°
2026-04-29 19:47 -1.38642 -48.48335 45 ft 141 kts 42°
2026-04-29 19:47 -1.38091 -48.47781 49 ft 72 kts 45°
2026-04-29 19:47 -1.37923 -48.47623 47 ft 15 kts 21°
2026-04-29 19:48 -1.37836 -48.47604 47 ft 9 kts
2026-04-29 19:48 -1.37831 -48.47614 48 ft 1 kts 268°
2026-04-29 19:48 -1.37856 -48.47618 47 ft 7 kts 182°
2026-04-29 19:48 -1.37920 -48.47619 47 ft 10 kts 182°
2026-04-29 19:49 -1.38001 -48.47626 48 ft 14 kts 186°
2026-04-29 19:49 -1.38100 -48.47635 50 ft 14 kts 184°
2026-04-29 19:49 -1.38200 -48.47643 51 ft 15 kts 185°
2026-04-29 19:49 -1.38322 -48.47654 52 ft 19 kts 184°
2026-04-29 19:50 -1.38456 -48.47665 53 ft 19 kts 184°
2026-04-29 19:50 -1.38589 -48.47676 56 ft 15 kts 183°
2026-04-29 19:50 -1.38660 -48.47719 51 ft 14 kts 255°
2026-04-29 19:50 -1.38700 -48.47794 52 ft 12 kts 191°
2026-04-29 19:51 -1.38788 -48.47803 56 ft 13 kts 185°
2026-04-29 19:51 -1.38871 -48.47822 54 ft 11 kts 226°
2026-04-29 19:51 -1.38912 -48.47876 53 ft 0 kts 236°